Year,Month,Day,Hour,Minute,Value (Times are PST for windspeed in km/hr)
2017,08,12,00,00,0.00
2017,08,12,00,01,0.80
2017,08,12,00,02,0.20
2017,08,12,00,03,0.00
2017,08,12,00,04,0.00
2017,08,12,00,05,0.00
2017,08,12,00,06,0.00
2017,08,12,00,07,0.00
2017,08,12,00,08,0.00
2017,08,12,00,09,0.00
2017,08,12,00,10,0.00
2017,08,12,00,11,0.00
2017,08,12,00,12,1.50
2017,08,12,00,13,1.80
2017,08,12,00,14,0.70
2017,08,12,00,15,0.00
2017,08,12,00,16,3.60
2017,08,12,00,17,3.00
2017,08,12,00,18,4.20
2017,08,12,00,19,1.60
2017,08,12,00,20,1.80
2017,08,12,00,21,1.70
2017,08,12,00,22,3.00
2017,08,12,00,23,1.30
2017,08,12,00,24,2.30
2017,08,12,00,25,2.90
2017,08,12,00,26,2.60
2017,08,12,00,27,0.60
2017,08,12,00,28,2.20
2017,08,12,00,29,4.60
2017,08,12,00,30,2.50
2017,08,12,00,31,3.90
2017,08,12,00,32,2.00
2017,08,12,00,33,0.70
2017,08,12,00,34,1.90
2017,08,12,00,35,3.60
2017,08,12,00,36,5.30
2017,08,12,00,37,1.50
2017,08,12,00,38,2.20
2017,08,12,00,39,1.50
2017,08,12,00,40,4.00
2017,08,12,00,41,3.30
2017,08,12,00,42,1.90
2017,08,12,00,43,1.40
2017,08,12,00,44,2.30
2017,08,12,00,45,0.50
2017,08,12,00,46,2.50
2017,08,12,00,47,2.70
2017,08,12,00,48,4.50
2017,08,12,00,49,3.30
2017,08,12,00,50,2.80
2017,08,12,00,51,5.00
2017,08,12,00,52,3.40
2017,08,12,00,53,4.20
2017,08,12,00,54,6.20
2017,08,12,00,55,4.30
2017,08,12,00,56,4.10
2017,08,12,00,57,5.70
2017,08,12,00,58,8.20
2017,08,12,00,59,2.90
2017,08,12,01,00,3.40
2017,08,12,01,01,3.70
2017,08,12,01,02,2.80
2017,08,12,01,03,3.20
2017,08,12,01,04,5.20
2017,08,12,01,05,2.70
2017,08,12,01,06,1.30
2017,08,12,01,07,2.00
2017,08,12,01,08,4.30
2017,08,12,01,09,1.20
2017,08,12,01,10,0.00
2017,08,12,01,11,0.40
2017,08,12,01,12,1.50
2017,08,12,01,13,0.30
2017,08,12,01,14,1.10
2017,08,12,01,15,2.90
2017,08,12,01,16,0.00
2017,08,12,01,17,3.50
2017,08,12,01,18,1.00
2017,08,12,01,19,1.20
2017,08,12,01,20,4.20
2017,08,12,01,21,2.70
2017,08,12,01,22,4.30
2017,08,12,01,23,4.50
2017,08,12,01,24,4.50
2017,08,12,01,25,3.40
2017,08,12,01,26,5.60
2017,08,12,01,27,3.50
2017,08,12,01,28,2.20
2017,08,12,01,29,2.80
2017,08,12,01,30,2.00
2017,08,12,01,31,4.10
2017,08,12,01,32,1.20
2017,08,12,01,33,1.30
2017,08,12,01,34,0.90
2017,08,12,01,35,0.10
2017,08,12,01,36,0.60
2017,08,12,01,37,4.20
2017,08,12,01,38,3.10
2017,08,12,01,39,0.50
2017,08,12,01,40,2.70
2017,08,12,01,41,0.50
2017,08,12,01,42,3.40
2017,08,12,01,43,3.70
2017,08,12,01,44,3.40
2017,08,12,01,45,1.20
2017,08,12,01,46,0.00
2017,08,12,01,47,0.00
2017,08,12,01,48,0.00
2017,08,12,01,49,1.50
2017,08,12,01,50,3.80
2017,08,12,01,51,2.80
2017,08,12,01,52,0.00
2017,08,12,01,53,0.70
2017,08,12,01,54,0.00
2017,08,12,01,55,0.00
2017,08,12,01,56,3.60
2017,08,12,01,57,4.30
2017,08,12,01,58,4.60
2017,08,12,01,59,7.80
2017,08,12,02,00,4.90
2017,08,12,02,01,3.80
2017,08,12,02,02,2.40
2017,08,12,02,03,2.80
2017,08,12,02,04,5.00
2017,08,12,02,05,3.30
2017,08,12,02,06,3.20
2017,08,12,02,07,3.20
2017,08,12,02,08,5.00
2017,08,12,02,09,4.50
2017,08,12,02,10,3.20
2017,08,12,02,11,1.80
2017,08,12,02,12,2.40
2017,08,12,02,13,2.20
2017,08,12,02,14,5.10
2017,08,12,02,15,2.30
2017,08,12,02,16,0.00
2017,08,12,02,17,0.00
2017,08,12,02,18,3.60
2017,08,12,02,19,5.60
2017,08,12,02,20,6.30
2017,08,12,02,21,3.60
2017,08,12,02,22,3.70
2017,08,12,02,23,3.90
2017,08,12,02,24,4.00
2017,08,12,02,25,6.70
2017,08,12,02,26,5.10
2017,08,12,02,27,6.30
2017,08,12,02,28,7.90
2017,08,12,02,29,4.10
2017,08,12,02,30,6.30
2017,08,12,02,31,4.50
2017,08,12,02,32,5.00
2017,08,12,02,33,6.10
2017,08,12,02,34,5.70
2017,08,12,02,35,2.40
2017,08,12,02,36,5.70
2017,08,12,02,37,3.10
2017,08,12,02,38,0.10
2017,08,12,02,39,3.60
2017,08,12,02,40,5.60
2017,08,12,02,41,3.70
2017,08,12,02,42,4.40
2017,08,12,02,43,5.30
2017,08,12,02,44,3.30
2017,08,12,02,45,4.40
2017,08,12,02,46,2.20
2017,08,12,02,47,4.00
2017,08,12,02,48,0.50
2017,08,12,02,49,0.30
2017,08,12,02,50,1.10
2017,08,12,02,51,3.90
2017,08,12,02,52,4.00
2017,08,12,02,53,3.40
2017,08,12,02,54,3.70
2017,08,12,02,55,5.70
2017,08,12,02,56,6.40
2017,08,12,02,57,3.80
2017,08,12,02,58,7.30
2017,08,12,02,59,9.10
2017,08,12,03,00,5.90
2017,08,12,03,01,6.60
2017,08,12,03,02,6.70
2017,08,12,03,03,9.40
2017,08,12,03,04,7.90
2017,08,12,03,05,6.70
2017,08,12,03,06,8.60
2017,08,12,03,07,7.40
2017,08,12,03,08,8.30
2017,08,12,03,09,11.70
2017,08,12,03,10,9.70
2017,08,12,03,11,11.10
2017,08,12,03,12,10.70
2017,08,12,03,13,12.80
2017,08,12,03,14,7.20
2017,08,12,03,15,8.60
2017,08,12,03,16,9.00
2017,08,12,03,17,8.40
2017,08,12,03,18,6.90
2017,08,12,03,19,5.60
2017,08,12,03,20,8.10
2017,08,12,03,21,6.60
2017,08,12,03,22,9.00
2017,08,12,03,23,6.50
2017,08,12,03,24,2.50
2017,08,12,03,25,4.00
2017,08,12,03,26,3.40
2017,08,12,03,27,0.70
2017,08,12,03,28,0.00
2017,08,12,03,29,0.00
2017,08,12,03,30,0.00
2017,08,12,03,31,0.00
2017,08,12,03,32,0.00
2017,08,12,03,33,0.00
2017,08,12,03,34,0.00
2017,08,12,03,35,0.00
2017,08,12,03,36,0.00
2017,08,12,03,37,0.00
2017,08,12,03,38,0.00
2017,08,12,03,39,0.00
2017,08,12,03,40,0.00
2017,08,12,03,41,0.00
2017,08,12,03,42,0.00
2017,08,12,03,43,0.00
2017,08,12,03,44,3.20
2017,08,12,03,45,3.40
2017,08,12,03,46,0.10
2017,08,12,03,47,5.10
2017,08,12,03,48,7.40
2017,08,12,03,49,4.90
2017,08,12,03,50,0.00
2017,08,12,03,51,0.00
2017,08,12,03,52,0.00
2017,08,12,03,53,0.00
2017,08,12,03,54,0.00
2017,08,12,03,55,0.00
2017,08,12,03,56,0.00
2017,08,12,03,57,0.00
2017,08,12,03,58,3.00
2017,08,12,03,59,2.80
2017,08,12,04,00,0.20
2017,08,12,04,01,0.10
2017,08,12,04,02,0.60
2017,08,12,04,03,2.90
2017,08,12,04,04,1.50
2017,08,12,04,05,1.10
2017,08,12,04,06,5.10
2017,08,12,04,07,5.80
2017,08,12,04,08,3.10
2017,08,12,04,09,1.00
2017,08,12,04,10,0.00
2017,08,12,04,11,0.00
2017,08,12,04,12,0.80
2017,08,12,04,13,1.60
2017,08,12,04,14,0.00
2017,08,12,04,15,0.00
2017,08,12,04,16,0.00
2017,08,12,04,17,0.00
2017,08,12,04,18,0.00
2017,08,12,04,19,0.00
2017,08,12,04,20,0.00
2017,08,12,04,21,0.00
2017,08,12,04,22,0.00
2017,08,12,04,23,0.00
2017,08,12,04,24,1.00
2017,08,12,04,25,1.30
2017,08,12,04,26,0.00
2017,08,12,04,27,0.00
2017,08,12,04,28,0.00
2017,08,12,04,29,1.00
2017,08,12,04,30,0.60
2017,08,12,04,31,1.00
2017,08,12,04,32,0.00
2017,08,12,04,33,0.00
2017,08,12,04,34,0.00
2017,08,12,04,35,1.00
2017,08,12,04,36,0.90
2017,08,12,04,37,0.20
2017,08,12,04,38,1.20
2017,08,12,04,39,1.50
2017,08,12,04,40,0.50
2017,08,12,04,41,1.00
2017,08,12,04,42,0.00
2017,08,12,04,43,0.00
2017,08,12,04,44,2.30
2017,08,12,04,45,3.00
2017,08,12,04,46,1.50
2017,08,12,04,47,2.30
2017,08,12,04,48,4.00
2017,08,12,04,49,3.70
2017,08,12,04,50,3.60
2017,08,12,04,51,4.80
2017,08,12,04,52,4.80
2017,08,12,04,53,2.40
2017,08,12,04,54,0.00
2017,08,12,04,55,0.00
2017,08,12,04,56,0.20
2017,08,12,04,57,0.00
2017,08,12,04,58,0.00
2017,08,12,04,59,0.00
2017,08,12,05,00,0.00
2017,08,12,05,01,0.00
2017,08,12,05,02,0.00
2017,08,12,05,03,0.00
2017,08,12,05,04,1.50
2017,08,12,05,05,1.10
2017,08,12,05,06,0.10
2017,08,12,05,07,2.10
2017,08,12,05,08,1.20
2017,08,12,05,09,0.00
2017,08,12,05,10,0.00
2017,08,12,05,11,0.00
2017,08,12,05,12,0.10
2017,08,12,05,13,0.00
2017,08,12,05,14,0.00
2017,08,12,05,15,0.00
2017,08,12,05,16,0.00
2017,08,12,05,17,0.00
2017,08,12,05,18,0.00
2017,08,12,05,19,0.00
2017,08,12,05,20,0.00
2017,08,12,05,21,0.00
2017,08,12,05,22,0.00
2017,08,12,05,23,0.00
2017,08,12,05,24,0.00
2017,08,12,05,25,0.00
2017,08,12,05,26,0.00
2017,08,12,05,27,0.00
2017,08,12,05,28,0.00
2017,08,12,05,29,0.00
2017,08,12,05,30,0.00
2017,08,12,05,31,0.00
2017,08,12,05,32,0.00
2017,08,12,05,33,0.00
2017,08,12,05,34,0.00
2017,08,12,05,35,0.00
2017,08,12,05,36,0.00
2017,08,12,05,37,0.00
2017,08,12,05,38,0.00
2017,08,12,05,39,0.00
2017,08,12,05,40,0.00
2017,08,12,05,41,0.00
2017,08,12,05,42,4.20
2017,08,12,05,43,3.00
2017,08,12,05,44,0.20
2017,08,12,05,45,0.00
2017,08,12,05,46,0.00
2017,08,12,05,47,1.50
2017,08,12,05,48,1.40
2017,08,12,05,49,1.30
2017,08,12,05,50,3.10
2017,08,12,05,51,2.30
2017,08,12,05,52,0.10
2017,08,12,05,53,0.60
2017,08,12,05,54,0.00
2017,08,12,05,55,0.00
2017,08,12,05,56,0.00
2017,08,12,05,57,0.00
2017,08,12,05,58,3.10
2017,08,12,05,59,3.90
2017,08,12,06,00,4.00
2017,08,12,06,01,4.50
2017,08,12,06,02,4.40
2017,08,12,06,03,2.50
2017,08,12,06,04,0.10
2017,08,12,06,05,0.90
2017,08,12,06,06,3.80
2017,08,12,06,07,2.00
2017,08,12,06,08,1.70
2017,08,12,06,09,0.00
2017,08,12,06,10,0.00
2017,08,12,06,11,0.00
2017,08,12,06,12,0.20
2017,08,12,06,13,0.00
2017,08,12,06,14,0.00
2017,08,12,06,15,0.00
2017,08,12,06,16,0.10
2017,08,12,06,17,0.60
2017,08,12,06,18,0.20
2017,08,12,06,19,0.00
2017,08,12,06,20,2.60
2017,08,12,06,21,2.10
2017,08,12,06,22,1.00
2017,08,12,06,23,2.40
2017,08,12,06,24,2.60
2017,08,12,06,25,0.50
2017,08,12,06,26,1.60
2017,08,12,06,27,3.80
2017,08,12,06,28,2.10
2017,08,12,06,29,1.80
2017,08,12,06,30,2.00
2017,08,12,06,31,1.80
2017,08,12,06,32,4.00
2017,08,12,06,33,2.70
2017,08,12,06,34,4.00
2017,08,12,06,35,3.30
2017,08,12,06,36,3.80
2017,08,12,06,37,4.50
2017,08,12,06,38,3.60
2017,08,12,06,39,1.50
2017,08,12,06,40,3.10
2017,08,12,06,41,4.30
2017,08,12,06,42,4.00
2017,08,12,06,43,3.30
2017,08,12,06,44,3.50
2017,08,12,06,45,2.30
2017,08,12,06,46,1.40
2017,08,12,06,47,0.90
2017,08,12,06,48,1.30
2017,08,12,06,49,0.60
2017,08,12,06,50,1.60
2017,08,12,06,51,1.90
2017,08,12,06,52,0.90
2017,08,12,06,53,0.00
2017,08,12,06,54,0.00
2017,08,12,06,55,0.00
2017,08,12,06,56,0.00
2017,08,12,06,57,0.60
2017,08,12,06,58,2.40
2017,08,12,06,59,3.60
2017,08,12,07,00,4.40
2017,08,12,07,01,3.10
2017,08,12,07,02,4.30
2017,08,12,07,03,1.20
2017,08,12,07,04,2.60
2017,08,12,07,05,0.10
2017,08,12,07,06,0.60
2017,08,12,07,07,1.00
2017,08,12,07,08,1.30
2017,08,12,07,09,3.60
2017,08,12,07,10,3.50
2017,08,12,07,11,0.80
2017,08,12,07,12,2.60
2017,08,12,07,13,1.40
2017,08,12,07,14,2.30
2017,08,12,07,15,4.50
2017,08,12,07,16,2.50
2017,08,12,07,17,2.50
2017,08,12,07,18,2.50
2017,08,12,07,19,4.20
2017,08,12,07,20,5.00
2017,08,12,07,21,5.20
2017,08,12,07,22,3.20
2017,08,12,07,23,5.70
2017,08,12,07,24,1.70
2017,08,12,07,25,0.80
2017,08,12,07,26,2.50
2017,08,12,07,27,0.10
2017,08,12,07,28,0.80
2017,08,12,07,29,0.00
2017,08,12,07,30,0.20
2017,08,12,07,31,5.20
2017,08,12,07,32,5.20
2017,08,12,07,33,3.60
2017,08,12,07,34,3.30
2017,08,12,07,35,1.90
2017,08,12,07,36,0.00
2017,08,12,07,37,2.50
2017,08,12,07,38,3.70
2017,08,12,07,39,1.70
2017,08,12,07,40,2.20
2017,08,12,07,41,1.90
2017,08,12,07,42,2.10
2017,08,12,07,43,3.20
2017,08,12,07,44,5.20
2017,08,12,07,45,6.90
2017,08,12,07,46,9.30
2017,08,12,07,47,7.60
2017,08,12,07,48,9.30
2017,08,12,07,49,7.20
2017,08,12,07,50,8.20
2017,08,12,07,51,5.80
2017,08,12,07,52,4.80
2017,08,12,07,53,7.90
2017,08,12,07,54,10.00
2017,08,12,07,55,4.30
2017,08,12,07,56,7.50
2017,08,12,07,57,7.60
2017,08,12,07,58,5.20
2017,08,12,07,59,2.80
2017,08,12,08,00,6.40
2017,08,12,08,01,8.40
2017,08,12,08,02,10.30
2017,08,12,08,03,9.60
2017,08,12,08,04,7.40
2017,08,12,08,05,8.90
2017,08,12,08,06,8.60
2017,08,12,08,07,8.00
2017,08,12,08,08,9.00
2017,08,12,08,09,3.30
2017,08,12,08,10,4.20
2017,08,12,08,11,5.10
2017,08,12,08,12,7.40
2017,08,12,08,13,5.90
2017,08,12,08,14,5.30
2017,08,12,08,15,4.70
2017,08,12,08,16,6.10
2017,08,12,08,17,4.70
2017,08,12,08,18,4.40
2017,08,12,08,19,6.10
2017,08,12,08,20,5.60
2017,08,12,08,21,7.00
2017,08,12,08,22,6.20
2017,08,12,08,23,3.50
2017,08,12,08,24,3.30
2017,08,12,08,25,6.00
2017,08,12,08,26,7.80
2017,08,12,08,27,6.20
2017,08,12,08,28,3.60
2017,08,12,08,29,3.40
2017,08,12,08,30,5.90
2017,08,12,08,31,6.10
2017,08,12,08,32,2.80
2017,08,12,08,33,6.40
2017,08,12,08,34,3.90
2017,08,12,08,35,5.90
2017,08,12,08,36,0.90
2017,08,12,08,37,2.00
2017,08,12,08,38,6.20
2017,08,12,08,39,4.00
2017,08,12,08,40,5.80
2017,08,12,08,41,2.60
2017,08,12,08,42,0.80
2017,08,12,08,43,2.20
2017,08,12,08,44,3.40
2017,08,12,08,45,5.90
2017,08,12,08,46,2.70
2017,08,12,08,47,5.00
2017,08,12,08,48,4.70
2017,08,12,08,49,5.30
2017,08,12,08,50,1.60
2017,08,12,08,51,0.50
2017,08,12,08,52,0.60
2017,08,12,08,53,4.50
2017,08,12,08,54,4.90
2017,08,12,08,55,5.90
2017,08,12,08,56,5.50
2017,08,12,08,57,3.10
2017,08,12,08,58,4.80
2017,08,12,08,59,2.60
2017,08,12,09,00,4.00
2017,08,12,09,01,4.20
2017,08,12,09,02,6.20
2017,08,12,09,03,6.20
2017,08,12,09,04,3.50
2017,08,12,09,05,4.50
2017,08,12,09,06,4.50
2017,08,12,09,07,3.10
2017,08,12,09,08,0.70
2017,08,12,09,09,3.30
2017,08,12,09,10,4.20
2017,08,12,09,11,4.00
2017,08,12,09,12,5.70
2017,08,12,09,13,5.60
2017,08,12,09,14,5.70
2017,08,12,09,15,4.10
2017,08,12,09,16,3.70
2017,08,12,09,17,7.10
2017,08,12,09,18,7.80
2017,08,12,09,19,6.60
2017,08,12,09,20,7.40
2017,08,12,09,21,7.40
2017,08,12,09,22,7.20
2017,08,12,09,23,7.20
2017,08,12,09,24,11.50
2017,08,12,09,25,12.40
2017,08,12,09,26,8.40
2017,08,12,09,27,10.00
2017,08,12,09,28,9.90
2017,08,12,09,29,8.30
2017,08,12,09,30,10.70
2017,08,12,09,31,9.10
2017,08,12,09,32,11.50
2017,08,12,09,33,8.10
2017,08,12,09,34,11.10
2017,08,12,09,35,10.20
2017,08,12,09,36,10.60
2017,08,12,09,37,12.70
2017,08,12,09,38,7.10
2017,08,12,09,39,11.30
2017,08,12,09,40,10.20
2017,08,12,09,41,6.40
2017,08,12,09,42,4.10
2017,08,12,09,43,10.10
2017,08,12,09,44,8.20
2017,08,12,09,45,12.60
2017,08,12,09,46,10.40
2017,08,12,09,47,10.20
2017,08,12,09,48,12.30
2017,08,12,09,49,12.70
2017,08,12,09,50,9.90
2017,08,12,09,51,10.10
2017,08,12,09,52,14.20
2017,08,12,09,53,12.10
2017,08,12,09,54,8.30
2017,08,12,09,55,9.70
2017,08,12,09,56,7.00
2017,08,12,09,57,5.70
2017,08,12,09,58,11.50
2017,08,12,09,59,10.00
2017,08,12,10,00,12.70
2017,08,12,10,01,13.20
2017,08,12,10,02,10.30
2017,08,12,10,03,3.40
2017,08,12,10,04,8.40
2017,08,12,10,05,7.20
2017,08,12,10,06,9.00
2017,08,12,10,07,7.40
2017,08,12,10,08,9.70
2017,08,12,10,09,6.10
2017,08,12,10,10,7.60
2017,08,12,10,11,10.20
2017,08,12,10,12,6.50
2017,08,12,10,13,7.60
2017,08,12,10,14,8.90
2017,08,12,10,15,5.60
2017,08,12,10,16,9.60
2017,08,12,10,17,9.40
2017,08,12,10,18,7.80
2017,08,12,10,19,7.10
2017,08,12,10,20,10.00
2017,08,12,10,21,9.70
2017,08,12,10,22,7.00
2017,08,12,10,23,6.40
2017,08,12,10,24,7.10
2017,08,12,10,25,5.60
2017,08,12,10,26,10.00
2017,08,12,10,27,4.50
2017,08,12,10,28,6.50
2017,08,12,10,29,9.40
2017,08,12,10,30,11.60
2017,08,12,10,31,12.60
2017,08,12,10,32,14.20
2017,08,12,10,33,8.60
2017,08,12,10,34,10.90
2017,08,12,10,35,10.40
2017,08,12,10,36,10.40
2017,08,12,10,37,9.40
2017,08,12,10,38,12.10
2017,08,12,10,39,9.40
2017,08,12,10,40,6.90
2017,08,12,10,41,11.70
2017,08,12,10,42,13.00
2017,08,12,10,43,8.00
2017,08,12,10,44,8.60
2017,08,12,10,45,17.00
2017,08,12,10,46,16.60
2017,08,12,10,47,15.80
2017,08,12,10,48,17.30
2017,08,12,10,49,13.50
2017,08,12,10,50,13.50
2017,08,12,10,51,11.00
2017,08,12,10,52,8.90
2017,08,12,10,53,14.80
2017,08,12,10,54,10.20
2017,08,12,10,55,12.10
2017,08,12,10,56,11.40
2017,08,12,10,57,7.10
2017,08,12,10,58,10.50
2017,08,12,10,59,6.80
2017,08,12,11,00,12.20
2017,08,12,11,01,13.10
2017,08,12,11,02,15.80
2017,08,12,11,03,9.30
2017,08,12,11,04,9.50
2017,08,12,11,05,8.40
2017,08,12,11,06,14.90
2017,08,12,11,07,14.80
2017,08,12,11,08,10.80
2017,08,12,11,09,10.60
2017,08,12,11,10,16.40
2017,08,12,11,11,10.80
2017,08,12,11,12,10.30
2017,08,12,11,13,9.60
2017,08,12,11,14,14.80
2017,08,12,11,15,13.50
2017,08,12,11,16,9.90
2017,08,12,11,17,10.00
2017,08,12,11,18,6.50
2017,08,12,11,19,7.00
2017,08,12,11,20,16.90
2017,08,12,11,21,12.30
2017,08,12,11,22,17.10
2017,08,12,11,23,15.10
2017,08,12,11,24,15.30
2017,08,12,11,25,17.50
2017,08,12,11,26,16.60
2017,08,12,11,27,12.90
2017,08,12,11,28,12.60
2017,08,12,11,29,17.20
2017,08,12,11,30,19.00
2017,08,12,11,31,19.90
2017,08,12,11,32,20.90
2017,08,12,11,33,19.40
2017,08,12,11,34,14.90
2017,08,12,11,35,22.30
2017,08,12,11,36,14.30
2017,08,12,11,37,23.80
2017,08,12,11,38,22.80
2017,08,12,11,39,21.60
2017,08,12,11,40,20.50
2017,08,12,11,41,19.30
2017,08,12,11,42,21.60
2017,08,12,11,43,20.10
2017,08,12,11,44,15.70
2017,08,12,11,45,19.70
2017,08,12,11,46,15.80
2017,08,12,11,47,21.20
2017,08,12,11,48,16.70
2017,08,12,11,49,17.70
2017,08,12,11,50,22.20
2017,08,12,11,51,13.90
2017,08,12,11,52,19.50
2017,08,12,11,53,10.20
2017,08,12,11,54,23.80
2017,08,12,11,55,19.90
2017,08,12,11,56,19.50
2017,08,12,11,57,19.90
2017,08,12,11,58,19.00
2017,08,12,11,59,22.90
2017,08,12,12,00,17.80
2017,08,12,12,01,17.50
2017,08,12,12,02,19.40
2017,08,12,12,03,23.60
2017,08,12,12,04,19.10
2017,08,12,12,05,18.00
2017,08,12,12,06,18.10
2017,08,12,12,07,18.10
2017,08,12,12,08,20.10
2017,08,12,12,09,18.10
2017,08,12,12,10,19.80
2017,08,12,12,11,19.80
2017,08,12,12,12,17.40
2017,08,12,12,13,19.40
2017,08,12,12,14,15.10
2017,08,12,12,15,17.10
2017,08,12,12,16,18.90
2017,08,12,12,17,17.00
2017,08,12,12,18,21.10
2017,08,12,12,19,17.60
2017,08,12,12,20,22.70
2017,08,12,12,21,24.00
2017,08,12,12,22,21.70
2017,08,12,12,23,19.70
2017,08,12,12,24,19.20
2017,08,12,12,25,15.80
2017,08,12,12,26,17.40
2017,08,12,12,27,12.00
2017,08,12,12,28,13.40
2017,08,12,12,29,14.50
2017,08,12,12,30,10.90
2017,08,12,12,31,14.00
2017,08,12,12,32,20.90
2017,08,12,12,33,17.00
2017,08,12,12,34,19.80
2017,08,12,12,35,11.30
2017,08,12,12,36,21.10
2017,08,12,12,37,17.00
2017,08,12,12,38,18.30
2017,08,12,12,39,20.90
2017,08,12,12,40,12.30
2017,08,12,12,41,15.60
2017,08,12,12,42,13.30
2017,08,12,12,43,14.30
2017,08,12,12,44,19.40
2017,08,12,12,45,13.60
2017,08,12,12,46,14.80
2017,08,12,12,47,15.70
2017,08,12,12,48,16.90
2017,08,12,12,49,20.70
2017,08,12,12,50,14.70
2017,08,12,12,51,11.10
2017,08,12,12,52,19.30
2017,08,12,12,53,18.70
2017,08,12,12,54,22.70
2017,08,12,12,55,20.40
2017,08,12,12,56,17.60
2017,08,12,12,57,17.10
2017,08,12,12,58,15.90
2017,08,12,12,59,17.70
2017,08,12,13,00,21.90
2017,08,12,13,01,23.20
2017,08,12,13,02,19.50
2017,08,12,13,03,21.40
2017,08,12,13,04,18.40
2017,08,12,13,05,16.90
2017,08,12,13,06,21.10
2017,08,12,13,07,15.20
2017,08,12,13,08,15.60
2017,08,12,13,09,17.30
2017,08,12,13,10,19.20
2017,08,12,13,11,26.00
2017,08,12,13,12,16.50
2017,08,12,13,13,21.80
2017,08,12,13,14,22.70
2017,08,12,13,15,28.10
2017,08,12,13,16,16.50
2017,08,12,13,17,19.20
2017,08,12,13,18,21.60
2017,08,12,13,19,21.10
2017,08,12,13,20,18.80
2017,08,12,13,21,23.30
2017,08,12,13,22,20.60
2017,08,12,13,23,22.30
2017,08,12,13,24,16.60
2017,08,12,13,25,15.10
2017,08,12,13,26,18.40
2017,08,12,13,27,22.80
2017,08,12,13,28,21.40
2017,08,12,13,29,23.20
2017,08,12,13,30,22.00
2017,08,12,13,31,20.70
2017,08,12,13,32,26.10
2017,08,12,13,33,12.70
2017,08,12,13,34,17.70
2017,08,12,13,35,20.10
2017,08,12,13,36,24.50
2017,08,12,13,37,14.50
2017,08,12,13,38,12.20
2017,08,12,13,39,11.60
2017,08,12,13,40,17.90
2017,08,12,13,41,21.10
2017,08,12,13,42,15.00
2017,08,12,13,43,19.20
2017,08,12,13,44,14.10
2017,08,12,13,45,15.50
2017,08,12,13,46,13.20
2017,08,12,13,47,15.40
2017,08,12,13,48,19.70
2017,08,12,13,49,16.70
2017,08,12,13,50,11.10
2017,08,12,13,51,19.30
2017,08,12,13,52,14.90
2017,08,12,13,53,18.70
2017,08,12,13,54,15.40
2017,08,12,13,55,18.50
2017,08,12,13,56,17.10
2017,08,12,13,57,21.70
2017,08,12,13,58,11.30
2017,08,12,13,59,19.70
2017,08,12,14,00,11.60
2017,08,12,14,01,16.20
2017,08,12,14,02,20.20
2017,08,12,14,03,18.80
2017,08,12,14,04,13.40
2017,08,12,14,05,18.40
2017,08,12,14,06,9.60
2017,08,12,14,07,14.20
2017,08,12,14,08,12.70
2017,08,12,14,09,16.90
2017,08,12,14,10,14.50
2017,08,12,14,11,11.90
2017,08,12,14,12,18.20
2017,08,12,14,13,16.90
2017,08,12,14,14,17.30
2017,08,12,14,15,15.40
2017,08,12,14,16,22.80
2017,08,12,14,17,18.30
2017,08,12,14,18,23.00
2017,08,12,14,19,15.10
2017,08,12,14,20,20.90
2017,08,12,14,21,19.70
2017,08,12,14,22,20.80
2017,08,12,14,23,21.90
2017,08,12,14,24,17.60
2017,08,12,14,25,19.90
2017,08,12,14,26,17.30
2017,08,12,14,27,16.70
2017,08,12,14,28,15.40
2017,08,12,14,29,19.00
2017,08,12,14,30,19.40
2017,08,12,14,31,18.30
2017,08,12,14,32,15.80
2017,08,12,14,33,19.60
2017,08,12,14,34,16.70
2017,08,12,14,35,19.10
2017,08,12,14,36,16.70
2017,08,12,14,37,20.60
2017,08,12,14,38,19.80
2017,08,12,14,39,16.70
2017,08,12,14,40,16.70
2017,08,12,14,41,20.90
2017,08,12,14,42,12.50
2017,08,12,14,43,15.00
2017,08,12,14,44,17.30
2017,08,12,14,45,13.70
2017,08,12,14,46,17.70
2017,08,12,14,47,16.00
2017,08,12,14,48,18.10
2017,08,12,14,49,18.40
2017,08,12,14,50,16.00
2017,08,12,14,51,18.60
2017,08,12,14,52,17.20
2017,08,12,14,53,14.70
2017,08,12,14,54,15.30
2017,08,12,14,55,15.30
2017,08,12,14,56,16.20
2017,08,12,14,57,19.20
2017,08,12,14,58,15.20
2017,08,12,14,59,18.30
2017,08,12,15,00,16.50
2017,08,12,15,01,21.00
2017,08,12,15,02,15.60
2017,08,12,15,03,14.90
2017,08,12,15,04,13.70
2017,08,12,15,05,17.40
2017,08,12,15,06,15.10
2017,08,12,15,07,12.80
2017,08,12,15,08,10.60
2017,08,12,15,09,13.30
2017,08,12,15,10,9.00
2017,08,12,15,11,6.00
2017,08,12,15,12,11.80
2017,08,12,15,13,12.70
2017,08,12,15,14,15.60
2017,08,12,15,15,11.80
2017,08,12,15,16,14.30
2017,08,12,15,17,11.40
2017,08,12,15,18,8.30
2017,08,12,15,19,6.30
2017,08,12,15,20,11.20
2017,08,12,15,21,13.80
2017,08,12,15,22,11.50
2017,08,12,15,23,14.80
2017,08,12,15,24,10.80
2017,08,12,15,25,12.40
2017,08,12,15,26,11.50
2017,08,12,15,27,14.60
2017,08,12,15,28,13.40
2017,08,12,15,29,11.50
2017,08,12,15,30,12.00
2017,08,12,15,31,10.50
2017,08,12,15,32,10.00
2017,08,12,15,33,9.30
2017,08,12,15,34,11.30
2017,08,12,15,35,11.50
2017,08,12,15,36,10.50
2017,08,12,15,37,11.40
2017,08,12,15,38,12.10
2017,08,12,15,39,10.90
2017,08,12,15,40,11.40
2017,08,12,15,41,10.70
2017,08,12,15,42,10.30
2017,08,12,15,43,9.80
2017,08,12,15,44,14.10
2017,08,12,15,45,9.20
2017,08,12,15,46,15.00
2017,08,12,15,47,13.90
2017,08,12,15,48,10.90
2017,08,12,15,49,9.10
2017,08,12,15,50,11.10
2017,08,12,15,51,6.20
2017,08,12,15,52,10.80
2017,08,12,15,53,9.50
2017,08,12,15,54,10.20
2017,08,12,15,55,8.90
2017,08,12,15,56,8.20
2017,08,12,15,57,10.00
2017,08,12,15,58,7.40
2017,08,12,15,59,7.30
2017,08,12,16,00,11.10
2017,08,12,16,01,8.60
2017,08,12,16,02,11.20
2017,08,12,16,03,13.00
2017,08,12,16,04,6.60
2017,08,12,16,05,9.80
2017,08,12,16,06,8.00
2017,08,12,16,07,12.60
2017,08,12,16,08,10.30
2017,08,12,16,09,9.40
2017,08,12,16,10,13.60
2017,08,12,16,11,7.30
2017,08,12,16,12,10.80
2017,08,12,16,13,12.80
2017,08,12,16,14,12.90
2017,08,12,16,15,12.90
2017,08,12,16,16,11.00
2017,08,12,16,17,10.50
2017,08,12,16,18,14.80
2017,08,12,16,19,10.50
2017,08,12,16,20,8.60
2017,08,12,16,21,8.60
2017,08,12,16,22,10.40
2017,08,12,16,23,8.00
2017,08,12,16,24,7.00
2017,08,12,16,25,9.00
2017,08,12,16,26,13.10
2017,08,12,16,27,11.40
2017,08,12,16,28,14.60
2017,08,12,16,29,9.80
2017,08,12,16,30,9.70
2017,08,12,16,31,11.60
2017,08,12,16,32,10.20
2017,08,12,16,33,11.10
2017,08,12,16,34,13.80
2017,08,12,16,35,14.20
2017,08,12,16,36,16.10
2017,08,12,16,37,9.90
2017,08,12,16,38,10.10
2017,08,12,16,39,8.90
2017,08,12,16,40,14.50
2017,08,12,16,41,8.10
2017,08,12,16,42,15.70
2017,08,12,16,43,8.00
2017,08,12,16,44,12.50
2017,08,12,16,45,10.20
2017,08,12,16,46,11.00
2017,08,12,16,47,8.90
2017,08,12,16,48,9.80
2017,08,12,16,49,8.10
2017,08,12,16,50,9.90
2017,08,12,16,51,7.20
2017,08,12,16,52,11.20
2017,08,12,16,53,14.50
2017,08,12,16,54,13.80
2017,08,12,16,55,17.80
2017,08,12,16,56,18.60
2017,08,12,16,57,12.70
2017,08,12,16,58,14.10
2017,08,12,16,59,15.30
2017,08,12,17,00,13.80
2017,08,12,17,01,18.70
2017,08,12,17,02,19.40
2017,08,12,17,03,14.60
2017,08,12,17,04,13.90
2017,08,12,17,05,12.50
2017,08,12,17,06,8.50
2017,08,12,17,07,7.50
2017,08,12,17,08,10.00
2017,08,12,17,09,11.30
2017,08,12,17,10,10.30
2017,08,12,17,11,5.90
2017,08,12,17,12,10.50
2017,08,12,17,13,7.80
2017,08,12,17,14,4.70
2017,08,12,17,15,5.30
2017,08,12,17,16,8.60
2017,08,12,17,17,6.30
2017,08,12,17,18,9.70
2017,08,12,17,19,8.80
2017,08,12,17,20,8.00
2017,08,12,17,21,12.00
2017,08,12,17,22,7.50
2017,08,12,17,23,5.70
2017,08,12,17,24,4.70
2017,08,12,17,25,8.90
2017,08,12,17,26,4.60
2017,08,12,17,27,5.00
2017,08,12,17,28,7.10
2017,08,12,17,29,6.80
2017,08,12,17,30,8.90
2017,08,12,17,31,10.00
2017,08,12,17,32,7.80
2017,08,12,17,33,7.80
2017,08,12,17,34,7.20
2017,08,12,17,35,8.00
2017,08,12,17,36,11.30
2017,08,12,17,37,7.90
2017,08,12,17,38,8.30
2017,08,12,17,39,6.00
2017,08,12,17,40,8.30
2017,08,12,17,41,6.40
2017,08,12,17,42,6.80
2017,08,12,17,43,6.70
2017,08,12,17,44,5.60
2017,08,12,17,45,8.60
2017,08,12,17,46,6.50
2017,08,12,17,47,5.60
2017,08,12,17,48,10.10
2017,08,12,17,49,3.70